Date String (YYYY-MM-DD hh:mm:ss) UTC,Instrument flags,Ambient pressure (hPa),Sample flow (lpm),Bypass flow (lpm),Sample temperature (°C),Ambient temperature (°C),ASC tube jacket temperature (°C),LED temperature (°C),Box temperature (°C),Sample RH (%),Span deviation,Mass concentration (μg/m³),Mass concentration (μg/m³),Mass concentration (μg/m³)
DateTimeUTC,F1_M11,P_M11,Q1_M11,Q2_M11,T1_M11,T2_M11,T3_M11,T4_M11,T5_M11,U1_M11,ZSPAN_M11,X2_M11,X0_M11,X1_M11
2022-09-24 23:00:00,,0829.6,5.00,0.00,29.9,26.4,00.0,38.5,31.7,11.2,0000.0,0003.20,0006.34,0002.67
2022-09-24 23:01:00,,0829.5,5.00,0.00,29.9,26.7,00.0,38.5,31.6,11.7,0000.0,0003.21,0006.47,0002.66
2022-09-24 23:02:00,,0829.5,5.00,0.00,29.8,27.0,00.0,38.5,31.4,11.7,0000.0,0003.19,0006.54,0002.65
2022-09-24 23:03:00,,0829.5,5.00,0.00,29.8,27.3,00.0,38.5,31.5,12.0,0000.0,0003.16,0006.70,0002.63
2022-09-24 23:04:00,,0829.5,5.00,0.00,29.8,27.7,00.0,38.5,31.6,11.7,0000.0,0003.17,0006.46,0002.61
2022-09-24 23:05:00,,0829.5,4.99,0.00,29.8,28.0,00.0,38.5,31.7,11.5,0000.0,0003.18,0006.42,0002.59
2022-09-24 23:06:00,,0829.5,5.00,0.00,29.8,28.2,00.0,38.5,31.7,11.4,0000.0,0003.15,0006.38,0002.56
2022-09-24 23:07:00,,0829.6,5.01,0.00,29.9,28.4,00.0,38.5,31.8,11.2,0000.0,0003.12,0006.27,0002.54
2022-09-24 23:08:00,,0829.5,4.99,0.00,29.9,28.6,00.0,38.5,31.9,11.4,0000.0,0003.13,0006.37,0002.51
2022-09-24 23:09:00,,0829.5,5.00,0.00,29.9,28.8,00.0,38.6,31.9,11.5,0000.0,0003.16,0006.47,0002.52
2022-09-24 23:10:00,,0829.5,5.00,0.00,30.0,28.9,00.0,38.6,32.0,12.0,0000.0,0003.16,0007.38,0002.52
2022-09-24 23:11:00,,0829.6,5.01,0.00,30.0,28.3,00.0,38.6,32.0,11.9,0000.0,0003.13,0007.37,0002.51
2022-09-24 23:12:00,,0829.5,5.00,0.00,30.0,26.9,00.0,38.5,31.8,11.8,0000.0,0003.12,0007.02,0002.50
2022-09-24 23:13:00,,0829.5,5.00,0.00,29.9,26.6,00.0,38.5,31.8,11.7,0000.0,0003.15,0006.74,0002.50
2022-09-24 23:14:00,,0829.6,5.00,0.00,29.9,26.8,00.0,38.5,31.6,11.5,0000.0,0003.17,0007.56,0002.50
2022-09-24 23:15:00,,0829.6,4.99,0.00,29.8,27.1,00.0,38.5,31.5,11.5,0000.0,0003.22,0007.86,0002.51
2022-09-24 23:16:00,,0829.5,5.01,0.00,29.8,27.5,00.0,38.5,31.6,11.2,0000.0,0003.20,0007.89,0002.50
2022-09-24 23:17:00,,0829.5,5.01,0.00,29.8,27.8,00.0,38.5,31.6,11.4,0000.0,0003.19,0007.92,0002.51
2022-09-24 23:18:00,,0829.5,5.00,0.00,29.8,28.0,00.0,38.5,31.7,11.8,0000.0,0003.22,0008.19,0002.52
2022-09-24 23:19:00,,0829.5,5.00,0.00,29.8,28.3,00.0,38.5,31.8,11.5,0000.0,0003.24,0008.38,0002.54
2022-09-24 23:20:00,,0829.5,5.00,0.00,29.9,28.5,00.0,38.5,31.8,11.6,0000.0,0003.22,0008.73,0002.54
2022-09-24 23:21:00,,0829.6,5.00,0.00,29.9,28.6,00.0,38.5,31.9,11.3,0000.0,0003.21,0008.60,0002.54
2022-09-24 23:22:00,,0829.6,5.01,0.00,30.0,28.8,00.0,38.6,32.0,11.4,0000.0,0003.22,0008.87,0002.53
2022-09-24 23:23:00,,0829.5,5.00,0.00,30.0,28.9,00.0,38.6,32.0,11.6,0000.0,0003.24,0009.08,0002.53
2022-09-24 23:24:00,,0829.5,4.99,0.00,30.0,27.9,00.0,38.6,31.9,11.3,0000.0,0003.26,0009.73,0002.54
2022-09-24 23:25:00,,0829.6,4.99,0.00,30.0,26.7,00.0,38.5,31.8,11.8,0000.0,0003.28,0009.26,0002.55
2022-09-24 23:26:00,,0829.5,5.00,0.00,29.9,26.5,00.0,38.5,31.7,12.1,0000.0,0003.24,0008.86,0002.55
2022-09-24 23:27:00,,0829.5,5.00,0.00,29.8,26.8,00.0,38.5,31.6,12.6,0000.0,0003.24,0008.87,0002.55
2022-09-24 23:28:00,,0829.5,5.00,0.00,29.8,27.1,00.0,38.5,31.5,12.6,0000.0,0003.24,0009.15,0002.54
2022-09-24 23:29:00,,0829.5,5.00,0.00,29.8,27.5,00.0,38.5,31.6,12.5,0000.0,0003.24,0009.41,0002.53
2022-09-24 23:30:00,,0829.6,5.01,0.00,29.8,27.8,00.0,38.5,31.7,12.6,0000.0,0003.22,0009.20,0002.51
2022-09-24 23:31:00,,0829.6,4.99,0.00,29.8,28.1,00.0,38.5,31.7,12.4,0000.0,0003.21,0008.82,0002.49
2022-09-24 23:32:00,,0829.6,5.01,0.00,29.8,28.3,00.0,38.5,31.7,12.0,0000.0,0003.24,0008.55,0002.49
2022-09-24 23:33:00,,0829.6,5.00,0.00,29.9,28.5,00.0,38.5,31.8,12.2,0000.0,0003.22,0007.96,0002.48
2022-09-24 23:34:00,,0829.6,5.00,0.00,29.9,28.7,00.0,38.5,31.9,11.9,0000.0,0003.21,0008.36,0002.47
2022-09-24 23:35:00,,0829.7,4.99,0.00,29.9,28.9,00.0,38.6,32.0,12.0,0000.0,0003.21,0008.24,0002.47
2022-09-24 23:36:00,,0829.7,4.99,0.00,30.0,28.9,00.0,38.6,32.0,12.2,0000.0,0003.16,0008.05,0002.44
2022-09-24 23:37:00,,0829.6,5.01,0.00,30.0,27.6,00.0,38.6,31.9,12.5,0000.0,0003.16,0008.01,0002.43
2022-09-24 23:38:00,,0829.6,5.01,0.00,29.9,26.5,00.0,38.5,31.7,12.3,0000.0,0003.16,0008.48,0002.42
2022-09-24 23:39:00,,0829.6,5.00,0.00,29.9,26.6,00.0,38.5,31.7,12.0,0000.0,0003.17,0008.36,0002.41
2022-09-24 23:40:00,,0829.6,5.01,0.00,29.8,26.9,00.0,38.5,31.6,11.8,0000.0,0003.16,0007.85,0002.40
2022-09-24 23:41:00,,0829.6,4.99,0.00,29.8,27.2,00.0,38.5,31.5,12.3,0000.0,0003.16,0007.85,0002.39
2022-09-24 23:42:00,,0829.6,4.99,0.00,29.7,27.6,00.0,38.5,31.6,12.5,0000.0,0003.18,0008.38,0002.38
2022-09-24 23:43:00,,0829.6,5.01,0.00,29.8,27.9,00.0,38.5,31.7,13.3,0000.0,0003.17,0008.46,0002.37
2022-09-24 23:44:00,,0829.7,4.99,0.00,29.8,28.1,00.0,38.5,31.7,13.2,0000.0,0003.17,0008.51,0002.36
2022-09-24 23:45:00,,0829.6,4.99,0.00,29.8,28.4,00.0,38.5,31.8,12.7,0000.0,0003.15,0008.38,0002.36
2022-09-24 23:46:00,,0829.6,5.01,0.00,29.8,28.5,00.0,38.5,31.8,12.6,0000.0,0003.12,0008.42,0002.35
2022-09-24 23:47:00,,0829.9,5.00,0.00,29.9,28.7,00.0,38.5,31.9,12.5,0000.0,0003.15,0008.68,0002.36
2022-09-24 23:48:00,,0829.7,5.00,0.00,29.9,28.9,00.0,38.6,32.0,12.5,0000.0,0003.17,0008.75,0002.34
2022-09-24 23:49:00,,0829.8,5.00,0.00,30.0,29.0,00.0,38.6,32.0,12.4,0000.0,0003.18,0008.59,0002.35
2022-09-24 23:50:00,,0829.8,4.99,0.00,30.0,28.9,00.0,38.6,32.0,12.5,0000.0,0003.19,0009.13,0002.35
2022-09-24 23:51:00,,0829.6,5.01,0.00,30.0,27.4,00.0,38.6,31.9,12.2,0000.0,0003.20,0009.22,0002.35
2022-09-24 23:52:00,,0829.7,5.00,0.00,29.9,26.5,00.0,38.5,31.7,12.5,0000.0,0003.23,0009.26,0002.36
2022-09-24 23:53:00,,0829.7,5.00,0.00,29.9,26.6,00.0,38.5,31.7,12.7,0000.0,0003.22,0008.79,0002.37
2022-09-24 23:54:00,,0829.8,5.00,0.00,29.8,26.9,00.0,38.5,31.5,12.9,0000.0,0003.22,0008.76,0002.38
2022-09-24 23:55:00,,0829.7,4.99,0.00,29.8,27.2,00.0,38.5,31.5,12.7,0000.0,0003.23,0008.87,0002.38
2022-09-24 23:56:00,,0829.7,5.01,0.00,29.8,27.6,00.0,38.5,31.6,12.3,0000.0,0003.25,0008.86,0002.38
2022-09-24 23:57:00,,0829.7,5.01,0.00,29.8,27.9,00.0,38.5,31.7,12.7,0000.0,0003.27,0008.20,0002.38
2022-09-24 23:58:00,,0829.7,5.00,0.00,29.8,28.1,00.0,38.5,31.7,12.9,0000.0,0003.25,0007.88,0002.40
2022-09-24 23:59:00,,0829.8,5.00,0.00,29.8,28.3,00.0,38.5,31.8,13.0,0000.0,0003.23,0007.86,0002.41
